Simultaneous Nadir Overpasses (SNOs) Predictions

Prediction of SNOs between GOES-15 and TERRA Satellite Orbit:

Table of predicted SNOs for the next 14.0 days since TLE Epoch: 2/18/2017
Index Date Time (GOES-15) GOES-15 Lat,Lon TERRA Lat,Lon Distance(km) Time Diff (sec)
1 02/19/2017 19:33:41 0.04,-135.34 0.07,-135.54 22.01 80
2 02/21/2017 19:18:50 0.03,-135.31 -0.55,-132.58 310.28 80
3 02/22/2017 07:40:13 -0.03,-135.31 -0.57,-137.77 280.68 80
4 02/24/2017 07:30:43 -0.03,-135.27 0.09,-134.83 50.75 80
5 02/26/2017 07:18:33 -0.02,-135.23 0.68,-131.87 381.46 80
6 02/26/2017 19:39:48 0.02,-135.21 0.42,-137.03 206.89 80
7 02/28/2017 19:24:58 0.03,-135.16 -0.21,-134.08 123.02 80
8 03/01/2017 07:46:22 -0.02,-135.15 -0.92,-139.27 468.79 80
9 03/02/2017 19:12:48 0.03,-135.11 -0.81,-131.13 452.05 80
10 03/03/2017 07:34:13 -0.02,-135.09 -0.26,-136.33 139.99 80




NCC Satellite Simultaneous Nadir Overpasses (SNOs) Prediction Service
